Wind_Speed
57 58 59 60 62 65 68 72 73 75 76 77 78 79 78 76 71 68 66 65 63 60 57 54 53 51 50 47 44 41 36 30 21 17 21 22 25 32 43 57 69 76 83
58 58 59 60 62 64 67 71 73 74 75 76 77 78 77 74 70 67 65 64 61 58 54 52 51 49 48 46 43 40 36 31 24 17 19 21 23 28 38 51 62 70 75
58 58 58 60 61 64 66 70 73 74 75 75 76 77 76 73 69 66 64 63 60 57 53 50 48 47 46 45 43 39 35 31 26 19 17 20 21 25 34 46 56 63 68
58 58 58 60 61 63 66 69 72 73 74 74 74 76 75 72 68 65 63 62 59 56 52 49 47 45 44 44 42 39 35 31 27 21 17 17 19 22 30 41 51 58 63
58 58 58 59 61 63 66 69 71 72 73 73 73 74 74 71 67 64 62 61 59 56 52 48 45 43 42 42 41 38 34 30 26 22 18 16 17 20 27 37 46 54 58
59 59 59 60 61 63 65 68 70 71 72 72 72 72 72 70 66 63 61 60 59 56 52 47 44 42 41 40 40 38 35 31 27 23 18 15 15 17 25 34 43 50 54
59 60 59 61 62 64 65 67 69 69 70 71 70 70 70 69 65 61 59 59 58 55 52 48 43 41 39 38 38 37 35 31 27 23 18 15 13 15 23 32 41 47 51
61 61 61 62 63 64 66 67 68 68 69 69 69 68 68 67 64 60 57 57 56 55 52 48 43 40 38 37 36 36 34 32 28 23 18 14 12 14 22 31 39 45 49
63 62 62 64 65 65 66 66 67 67 67 68 68 66 66 66 63 59 56 55 54 53 51 49 44 39 37 36 35 34 33 32 28 23 17 13 10 13 20 29 37 43 47
64 64 64 64 66 66 66 65 65 66 66 66 66 65 64 64 62 59 56 54 53 51 50 48 45 39 36 34 34 33 32 30 27 23 17 11 8 12 20 28 36 41 45
65 64 64 64 65 65 64 64 64 64 64 63 63 63 62 62 61 58 55 53 51 50 49 47 44 40 35 33 33 33 32 30 27 23 17 10 6 10 18 27 34 39 42
65 64 64 64 63 63 62 62 63 62 61 61 61 61 60 60 59 56 54 52 51 49 48 46 44 40 35 32 32 32 31 30 27 23 16 10 4 9 17 25 32 37 41
63 63 63 62 61 61 60 60 61 59 58 58 59 58 58 58 57 55 52 50 49 48 47 46 44 41 36 32 30 30 30 29 27 23 16 9 2 8 15 23 30 35 39
60 60 59 59 58 58 57 58 59 57 56 55 56 55 55 55 54 53 50 48 47 47 46 45 44 42 38 33 30 29 29 28 27 23 17 10 2 6 13 21 28 33 37
55 55 55 55 55 55 54 54 55 55 53 52 53 53 52 52 52 50 47 45 45 45 44 44 43 42 39 35 30 27 27 27 26 23 18 11 4 5 11 17 25 31 35
51 51 51 52 52 51 50 49 50 51 50 49 50 50 50 50 50 48 46 44 43 43 43 42 42 40 38 35 30 26 25 24 24 22 18 12 6 7 11 16 22 28 32
49 49 49 49 49 49 48 47 48 48 47 47 48 48 47 47 47 46 44 42 41 41 41 41 40 39 38 35 31 25 23 22 22 20 17 12 8 8 12 16 21 26 30
49 48 48 49 48 48 46 45 46 46 45 45 45 45 45 45 45 45 43 41 39 39 40 40 39 38 36 35 31 26 22 20 19 18 15 11 8 9 12 16 21 25 29
48 48 48 49 48 47 45 43 43 43 42 42 43 43 42 42 43 43 41 39 38 38 38 38 37 36 35 34 31 27 21 18 16 15 14 11 8 9 13 17 20 24 29
49 49 49 48 48 46 43 41 41 41 40 40 40 40 40 39 40 40 39 37 36 35 35 36 36 35 34 32 30 27 22 17 14 13 11 9 8 9 12 16 19 24 30
50 50 49 49 47 46 42 40 39 38 38 38 38 38 37 37 37 38 37 35 34 33 33 34 34 34 33 31 29 26 23 17 13 11 9 8 7 9 12 15 18 24 30
52 52 51 49 48 45 41 38 36 36 35 35 36 35 35 34 35 35 35 33 32 31 31 32 32 32 31 30 28 25 22 18 13 9 7 6 6 8 11 15 19 24 28
54 53 52 50 47 44 40 36 34 34 33 33 33 32 32 31 32 33 33 31 30 29 29 29 30 30 30 29 27 25 22 19 14 8 5 4 6 8 11 15 19 22 25
55 53 51 49 46 42 38 35 32 31 31 31 30 29 29 29 29 30 30 29 28 27 27 27 28 28 29 28 27 25 22 19 16 10 4 3 6 9 12 15 18 21 24
54 51 49 47 44 39 36 32 29 28 28 28 27 26 26 26 27 28 28 27 26 25 25 25 26 27 27 27 26 25 22 20 17 12 4 2 6 10 13 16 18 20 22
51 49 46 43 40 36 32 29 27 26 25 25 24 23 23 23 24 25 26 25 24 23 23 24 24 25 26 26 25 25 22 20 18 14 7 1 6 11 14 17 19 20 22
Wind_Direction
325 326 327 328 329 332 334 336 338 339 340 341 342 344 345 345 344 344 343 343 343 342 341 342 343 344 345 345 343 340 335 330 321 289 274 265 249 232 222 217 213 211 211
323 324 325 326 328 330 333 336 337 338 340 341 342 345 346 346 345 345 345 345 344 343 342 342 344 345 346 346 345 342 339 333 326 306 279 268 254 236 223 217 213 212 211
321 322 323 325 326 328 331 335 336 338 339 341 343 345 347 347 346 346 346 346 346 345 343 343 344 345 347 347 346 344 341 336 330 317 291 273 257 239 223 216 212 211 210
319 320 321 323 324 327 330 333 335 337 339 341 343 345 347 347 347 346 346 347 347 346 344 344 344 345 347 348 347 345 343 338 332 322 302 279 259 238 222 214 210 209 209
317 318 319 321 323 325 328 331 334 336 338 340 343 345 347 348 347 347 346 347 348 348 347 345 345 346 347 348 349 347 344 341 335 327 310 286 262 236 218 211 208 206 206
315 316 317 319 321 323 327 330 332 335 337 339 342 345 347 349 348 347 346 347 349 349 349 346 345 347 348 348 348 348 345 342 337 329 316 294 265 235 215 207 205 204 203
313 314 316 317 319 322 325 328 331 333 336 338 342 344 347 349 348 348 347 347 349 350 350 348 346 347 348 349 349 349 347 342 338 333 320 299 268 233 212 204 202 201 201
312 313 315 316 318 321 324 326 329 331 334 337 341 344 347 349 349 348 348 348 349 350 350 350 348 347 348 350 350 349 348 345 340 335 325 304 270 232 210 201 199 198 199
310 312 313 315 317 320 323 325 327 330 332 336 339 343 346 348 349 349 349 349 349 350 350 351 350 348 348 350 351 351 350 347 344 339 330 309 271 229 207 199 196 197 197
308 310 311 313 316 319 322 324 325 328 330 334 338 342 346 348 349 349 349 350 350 351 351 351 351 350 349 350 353 354 353 350 347 343 336 317 271 225 204 196 194 195 196
307 308 310 312 314 317 320 322 324 326 328 332 336 341 345 348 349 349 349 350 351 352 352 352 352 351 349 351 354 356 356 354 352 349 343 328 274 218 201 194 192 193 194
305 307 309 311 314 316 319 321 322 324 327 331 335 340 344 348 349 350 349 350 352 352 353 354 354 354 352 353 356 358 359 358 356 354 349 338 282 209 196 191 190 190 192
304 306 308 310 312 315 318 320 321 322 325 329 334 339 343 347 349 350 350 350 352 353 353 355 356 357 356 356 358 360 1 1 -0 359 358 351 298 199 192 189 188 189 191
304 306 307 310 312 314 317 319 319 320 322 327 332 338 343 346 349 350 350 350 351 353 354 355 356 358 360 0 0 1 2 3 5 6 7 7 11 184 187 188 188 188 189
305 306 308 310 312 314 316 318 319 318 320 325 331 336 342 346 349 350 350 350 351 353 354 356 358 0 1 1 0 1 3 5 7 10 12 16 43 155 176 184 186 186 187
305 308 310 312 313 314 317 319 319 318 319 323 329 335 340 345 349 350 350 350 351 353 355 357 359 1 2 2 2 3 5 7 10 13 17 26 61 129 157 171 178 181 182
307 309 311 312 314 315 316 318 318 317 318 321 327 333 339 345 349 351 351 351 352 353 355 358 359 1 3 4 4 5 8 10 14 18 24 36 68 119 144 158 166 171 176
307 308 311 313 314 315 315 316 316 316 316 319 326 332 338 343 348 351 351 351 352 353 355 358 360 1 3 5 6 8 10 13 17 23 31 44 73 115 140 153 161 166 170
306 308 310 313 314 315 315 315 315 315 315 318 324 330 336 342 347 351 351 351 352 354 355 358 360 1 3 5 7 9 12 15 20 26 35 49 77 116 142 153 161 166 169
305 306 308 311 313 314 315 315 314 313 313 316 322 328 335 341 346 350 351 352 352 354 355 357 359 1 3 5 7 10 12 16 21 28 38 54 83 120 144 156 162 166 168
302 303 306 308 310 312 313 313 312 311 311 314 320 327 333 340 346 350 351 352 352 353 355 357 359 1 3 5 7 10 12 15 21 30 42 61 90 123 145 157 163 168 169
298 299 301 303 305 308 310 310 309 308 309 311 317 324 331 339 345 350 351 352 352 353 354 357 359 1 3 5 7 9 12 14 19 28 46 77 106 130 148 161 167 171 173
295 295 296 298 300 302 304 304 304 304 305 308 315 322 330 338 345 350 352 353 352 352 354 356 358 1 3 5 7 9 11 14 16 22 44 93 126 140 151 164 173 177 178
292 292 292 293 294 296 298 298 298 299 301 305 311 320 328 336 344 350 352 353 352 352 353 355 358 0 3 5 7 8 11 13 14 17 37 118 145 154 159 167 176 180 182
288 288 288 287 288 290 291 291 291 293 295 300 308 317 326 335 344 350 353 353 353 352 353 355 357 0 2 5 7 8 10 12 13 15 22 151 167 167 168 170 175 180 184
285 283 282 281 280 281 282 282 283 285 289 296 304 313 323 334 343 350 353 354 353 352 352 354 357 360 2 4 6 8 9 11 12 14 20 133 180 180 178 178 179 181 183
Height
5698 5687 5677 5666 5654 5642 5629 5615 5599 5583 5567 5550 5533 5515 5496 5477 5459 5442 5425 5408 5392 5376 5361 5347 5333 5319 5306 5294 5282 5271 5262 5255 5252 5249 5246 5245 5244 5247 5252 5261 5274 5289 5305
5688 5678 5668 5657 5645 5633 5620 5606 5591 5575 5559 5542 5525 5507 5489 5471 5453 5437 5420 5404 5388 5373 5358 5344 5331 5317 5305 5292 5281 5270 5261 5253 5248 5245 5243 5241 5241 5243 5248 5256 5268 5281 5296
5678 5668 5658 5647 5636 5624 5611 5597 5582 5567 5551 5534 5518 5500 5483 5465 5448 5431 5416 5400 5384 5369 5355 5342 5329 5316 5304 5291 5280 5269 5260 5252 5246 5242 5240 5238 5237 5239 5243 5251 5262 5276 5290
5669 5659 5649 5638 5627 5615 5602 5589 5574 5559 5544 5527 5511 5494 5477 5460 5443 5427 5411 5396 5381 5366 5352 5339 5327 5314 5303 5291 5279 5269 5260 5252 5245 5240 5237 5235 5234 5235 5239 5247 5258 5270 5284
5659 5649 5639 5628 5617 5605 5593 5580 5567 5552 5537 5521 5504 5488 5471 5455 5438 5423 5408 5394 5379 5364 5350 5336 5324 5312 5301 5290 5279 5269 5260 5252 5245 5239 5235 5232 5231 5232 5236 5243 5254 5265 5279
5648 5639 5629 5618 5607 5596 5584 5572 5559 5545 5530 5515 5499 5482 5466 5450 5434 5418 5404 5389 5375 5361 5347 5334 5322 5311 5300 5289 5278 5268 5259 5251 5244 5238 5234 5231 5229 5230 5234 5240 5250 5261 5275
5637 5628 5618 5608 5597 5586 5575 5564 5551 5537 5523 5508 5493 5477 5461 5445 5430 5415 5400 5386 5372 5358 5345 5333 5321 5310 5299 5289 5278 5268 5258 5250 5243 5237 5233 5229 5228 5228 5232 5238 5247 5258 5270
5626 5617 5607 5597 5587 5577 5567 5556 5543 5530 5517 5502 5487 5472 5457 5442 5427 5413 5398 5384 5370 5356 5344 5331 5320 5309 5298 5288 5278 5268 5258 5250 5242 5236 5231 5228 5227 5227 5230 5236 5244 5255 5266
5614 5606 5596 5587 5577 5568 5558 5547 5536 5523 5510 5497 5483 5468 5453 5438 5424 5410 5396 5382 5368 5355 5342 5330 5319 5308 5298 5288 5278 5268 5258 5249 5241 5235 5230 5227 5226 5226 5229 5235 5243 5253 5264
5602 5594 5585 5576 5567 5558 5549 5539 5528 5516 5503 5491 5477 5463 5449 5435 5421 5407 5394 5381 5368 5355 5342 5329 5317 5306 5296 5287 5277 5268 5258 5250 5242 5235 5230 5227 5225 5225 5228 5234 5241 5250 5261
5590 5582 5574 5566 5557 5549 5540 5530 5520 5509 5497 5485 5472 5459 5446 5432 5418 5404 5391 5379 5366 5354 5341 5329 5317 5306 5296 5286 5277 5267 5258 5250 5242 5236 5230 5227 5225 5226 5228 5233 5240 5249 5260
5576 5569 5562 5555 5547 5539 5531 5522 5512 5501 5490 5478 5466 5453 5440 5428 5414 5401 5389 5376 5364 5352 5341 5329 5318 5306 5296 5286 5277 5268 5259 5251 5243 5237 5231 5228 5226 5227 5229 5234 5240 5249 5258
5563 5557 5550 5544 5536 5529 5521 5513 5504 5494 5483 5472 5461 5448 5436 5423 5411 5399 5387 5374 5363 5351 5340 5329 5317 5306 5296 5286 5277 5269 5261 5253 5245 5238 5233 5229 5228 5228 5230 5235 5241 5248 5257
5551 5545 5539 5532 5526 5519 5512 5504 5495 5486 5476 5466 5455 5443 5432 5420 5408 5396 5384 5373 5362 5350 5339 5328 5317 5306 5296 5286 5278 5270 5263 5255 5248 5241 5235 5232 5230 5230 5232 5236 5242 5249 5257
5539 5534 5528 5521 5515 5508 5502 5495 5487 5478 5470 5460 5450 5439 5427 5417 5406 5394 5384 5373 5362 5351 5340 5329 5318 5307 5297 5288 5280 5272 5265 5258 5251 5245 5239 5235 5233 5233 5235 5238 5243 5249 5257
5528 5523 5517 5511 5505 5498 5492 5486 5478 5471 5463 5454 5444 5434 5423 5413 5402 5392 5382 5371 5361 5351 5340 5330 5319 5309 5300 5291 5282 5275 5268 5261 5255 5249 5244 5240 5237 5237 5238 5241 5245 5251 5257
5518 5513 5507 5501 5495 5489 5483 5477 5470 5463 5456 5448 5439 5430 5420 5410 5400 5390 5380 5370 5360 5350 5340 5330 5320 5311 5302 5293 5284 5277 5271 5265 5259 5254 5249 5245 5243 5242 5243 5246 5249 5254 5260
5507 5502 5497 5492 5486 5480 5475 5469 5462 5456 5449 5442 5434 5425 5416 5406 5397 5387 5378 5368 5359 5350 5341 5331 5322 5313 5304 5295 5287 5280 5274 5269 5264 5259 5255 5251 5249 5248 5249 5251 5255 5259 5264
5497 5493 5487 5482 5476 5471 5466 5460 5454 5448 5442 5436 5429 5421 5412 5403 5394 5385 5376 5367 5358 5350 5341 5332 5323 5315 5306 5298 5290 5283 5277 5272 5268 5264 5261 5258 5256 5255 5256 5258 5261 5264 5269
5487 5482 5477 5472 5467 5462 5457 5452 5446 5441 5436 5430 5424 5416 5408 5399 5391 5382 5374 5365 5357 5349 5341 5333 5325 5316 5308 5301 5293 5286 5281 5276 5272 5269 5266 5264 5262 5262 5262 5264 5267 5270 5275
5475 5471 5466 5462 5457 5453 5448 5443 5439 5434 5429 5424 5418 5411 5404 5396 5388 5380 5372 5364 5356 5349 5341 5334 5326 5318 5311 5303 5296 5290 5284 5280 5276 5273 5271 5269 5268 5268 5268 5270 5272 5276 5280
5463 5458 5454 5451 5446 5443 5439 5435 5431 5426 5422 5418 5412 5406 5400 5392 5385 5377 5370 5362 5355 5348 5342 5334 5327 5320 5313 5306 5299 5293 5287 5283 5279 5277 5275 5274 5273 5273 5274 5276 5278 5281 5286
5447 5444 5440 5438 5434 5432 5429 5425 5422 5418 5415 5411 5407 5401 5395 5389 5382 5375 5367 5360 5354 5347 5341 5335 5328 5321 5314 5308 5301 5296 5290 5286 5282 5280 5278 5278 5278 5278 5279 5281 5283 5286 5290
5430 5427 5425 5423 5421 5420 5418 5415 5413 5410 5408 5405 5401 5396 5391 5385 5378 5372 5365 5359 5352 5347 5341 5335 5329 5323 5316 5310 5304 5298 5293 5288 5284 5282 5280 5280 5281 5282 5283 5285 5288 5291 5295
5410 5409 5408 5407 5407 5406 5406 5405 5403 5402 5400 5398 5395 5391 5386 5381 5375 5369 5363 5357 5351 5346 5340 5335 5329 5323 5317 5312 5306 5300 5295 5291 5286 5283 5282 5282 5283 5284 5286 5289 5292 5295 5299
5390 5390 5390 5390 5392 5393 5394 5394 5394 5393 5392 5391 5389 5385 5381 5377 5371 5366 5360 5355 5349 5344 5340 5335 5330 5324 5319 5313 5308 5302 5297 5292 5288 5285 5283 5282 5283 5285 5288 5291 5294 5298 5302